When you browse on this site, cookies collect data to enhance your experience and personalize the content and advertising you see.
Visit our Privacy Policy to learn more. By continuing to use the site, you agree to this use of cookies and data.
  • In Lithuania
  • List of Countries
  • For 7 days
  • Water Temperature
  • Weather Map
  • Weather Widgets
  • user-avatar
    Login

    Hourly Weather Buenos Aires

    Today, 17 October, Thursday

    Time Temperature Precipitation Wind Pressure Humidity
    00:00 +15°C° 0.5 mm 7 mps 762 mmHg 87%
    01:00 +15°C° 0.5 mm 6 mps 762 mmHg 88%
    02:00 +15°C° 0.5 mm 6 mps 761 mmHg 89%
    03:00 +15°C° 0.4 mm 5 mps 761 mmHg 90%
    04:00 +15°C° 0.4 mm 5 mps 761 mmHg 90%
    05:00 +15°C° 0.4 mm 5 mps 761 mmHg 91%
    06:00 +17°C° 0.2 mm 4 mps 761 mmHg 91%
    07:00 +17°C° 0.2 mm 4 mps 761 mmHg 92%
    08:00 +17°C° 0.2 mm 3 mps 761 mmHg 92%
    09:00 +17°C° 0.2 mm 3 mps 761 mmHg 90%
    10:00 +17°C° 0.2 mm 2 mps 760 mmHg 89%
    11:00 +18°C° 0.2 mm 2 mps 760 mmHg 88%
    12:00 +20°C° 0 mm 1 mps 760 mmHg 82%
    13:00 +21°C° 0 mm 1 mps 760 mmHg 77%
    14:00 +22°C° 0 mm 1 mps 759 mmHg 71%
    15:00 +22°C° 0 mm 1 mps 759 mmHg 73%
    16:00 +22°C° 0 mm 1 mps 759 mmHg 74%
    17:00 +22°C° 0 mm 1 mps 759 mmHg 76%
    18:00 +20°C° 0 mm 2 mps 759 mmHg 79%
    19:00 +19°C° 0 mm 3 mps 760 mmHg 82%
    20:00 +18°C° 0 mm 3 mps 760 mmHg 84%
    21:00 +17°C° 0 mm 3 mps 760 mmHg 85%
    22:00 +17°C° 0 mm 3 mps 760 mmHg 86%
    23:00 +16°C° 0 mm 3 mps 761 mmHg 87%

    Tomorrow, 18 October, Friday

    Time Temperature Precipitation Wind Pressure Humidity
    00:00 +16°C° 0 mm 3 mps 760 mmHg 86%
    01:00 +15°C° 0 mm 4 mps 760 mmHg 85%
    02:00 +14°C° 0 mm 4 mps 760 mmHg 85%
    03:00 +14°C° 0 mm 4 mps 761 mmHg 82%
    04:00 +13°C° 0 mm 4 mps 761 mmHg 79%
    05:00 +13°C° 0 mm 4 mps 761 mmHg 77%
    06:00 +13°C° 0 mm 5 mps 761 mmHg 73%
    07:00 +14°C° 0 mm 5 mps 762 mmHg 69%
    08:00 +15°C° 0 mm 5 mps 762 mmHg 65%
    09:00 +17°C° 0 mm 5 mps 762 mmHg 59%
    10:00 +20°C° 0 mm 5 mps 762 mmHg 52%
    11:00 +21°C° 0 mm 6 mps 762 mmHg 45%
    12:00 +22°C° 0 mm 6 mps 762 mmHg 44%
    13:00 +23°C° 0 mm 6 mps 762 mmHg 42%
    14:00 +23°C° 0 mm 6 mps 762 mmHg 41%
    15:00 +22°C° 0 mm 6 mps 762 mmHg 45%
    16:00 +22°C° 0 mm 6 mps 762 mmHg 49%
    17:00 +21°C° 0 mm 6 mps 762 mmHg 54%
    18:00 +20°C° 0 mm 5 mps 763 mmHg 57%
    19:00 +19°C° 0 mm 5 mps 764 mmHg 60%
    20:00 +17°C° 0 mm 5 mps 764 mmHg 64%
    21:00 +16°C° 0 mm 5 mps 764 mmHg 65%
    22:00 +15°C° 0 mm 5 mps 765 mmHg 66%
    23:00 +14°C° 0 mm 4 mps 765 mmHg 67%

    Day after tomorrow, 19 October, Saturday

    Time Temperature Precipitation Wind Pressure Humidity
    00:00 +14°C° 0 mm 4 mps 765 mmHg 69%
    01:00 +13°C° 0 mm 4 mps 765 mmHg 70%
    02:00 +12°C° 0 mm 4 mps 765 mmHg 72%
    03:00 +12°C° 0 mm 4 mps 765 mmHg 74%
    04:00 +11°C° 0 mm 4 mps 765 mmHg 75%
    05:00 +11°C° 0 mm 4 mps 766 mmHg 77%
    06:00 +12°C° 0 mm 4 mps 766 mmHg 73%
    07:00 +13°C° 0 mm 4 mps 766 mmHg 69%
    08:00 +14°C° 0 mm 4 mps 766 mmHg 64%
    09:00 +15°C° 0 mm 4 mps 766 mmHg 59%
    10:00 +18°C° 0 mm 4 mps 766 mmHg 54%
    11:00 +20°C° 0 mm 4 mps 766 mmHg 49%
    12:00 +20°C° 0 mm 4 mps 766 mmHg 49%
    13:00 +21°C° 0 mm 4 mps 765 mmHg 49%
    14:00 +21°C° 0 mm 4 mps 765 mmHg 49%
    15:00 +21°C° 0 mm 5 mps 765 mmHg 52%
    16:00 +20°C° 0 mm 6 mps 765 mmHg 54%
    17:00 +18°C° 0 mm 7 mps 764 mmHg 57%
    18:00 +17°C° 0 mm 6 mps 765 mmHg 62%
    19:00 +16°C° 0 mm 6 mps 765 mmHg 67%
    20:00 +15°C° 0 mm 6 mps 766 mmHg 72%
    21:00 +15°C° 0 mm 6 mps 765 mmHg 72%
    22:00 +15°C° 0 mm 6 mps 765 mmHg 72%
    23:00 +15°C° 0 mm 6 mps 765 mmHg 72%

    20 October, Sunday

    Time Temperature Precipitation Wind Pressure Humidity
    00:00 +15°C° 0 mm 6 mps 765 mmHg 74%
    01:00 +15°C° 0 mm 6 mps 764 mmHg 76%
    02:00 +15°C° 0 mm 6 mps 764 mmHg 78%
    03:00 +15°C° 0 mm 5 mps 764 mmHg 78%
    04:00 +15°C° 0 mm 5 mps 764 mmHg 77%
    05:00 +15°C° 0 mm 5 mps 764 mmHg 77%
    06:00 +15°C° 0 mm 5 mps 764 mmHg 73%
    07:00 +16°C° 0 mm 5 mps 765 mmHg 70%
    08:00 +17°C° 0 mm 5 mps 765 mmHg 66%
    09:00 +17°C° 0 mm 5 mps 765 mmHg 64%
    10:00 +17°C° 0 mm 5 mps 765 mmHg 61%
    11:00 +19°C° 0 mm 5 mps 764 mmHg 58%
    12:00 +19°C° 0 mm 5 mps 764 mmHg 54%
    13:00 +19°C° 0 mm 4 mps 764 mmHg 51%
    14:00 +20°C° 0 mm 4 mps 763 mmHg 47%
    15:00 +19°C° 0 mm 4 mps 763 mmHg 51%
    16:00 +19°C° 0 mm 4 mps 763 mmHg 54%
    17:00 +18°C° 0 mm 4 mps 762 mmHg 58%
    18:00 +17°C° 0.1 mm 5 mps 762 mmHg 63%
    19:00 +16°C° 0.1 mm 5 mps 763 mmHg 67%
    20:00 +15°C° 0.1 mm 5 mps 763 mmHg 71%
    21:00 +15°C° 0.5 mm 4 mps 763 mmHg 74%
    22:00 +15°C° 0.5 mm 4 mps 763 mmHg 76%
    23:00 +14°C° 0.5 mm 4 mps 763 mmHg 79%

    21 October, Monday

    Time Temperature Precipitation Wind Pressure Humidity
    00:00 +14°C° 0.5 mm 3 mps 762 mmHg 80%
    01:00 +15°C° 0.5 mm 2 mps 762 mmHg 81%
    02:00 +15°C° 0.5 mm 2 mps 762 mmHg 81%
    03:00 +15°C° 0.4 mm 2 mps 762 mmHg 81%
    04:00 +15°C° 0.4 mm 2 mps 762 mmHg 81%
    05:00 +15°C° 0.4 mm 2 mps 762 mmHg 81%
    06:00 +15°C° 0.3 mm 2 mps 762 mmHg 80%
    07:00 +16°C° 0.3 mm 2 mps 762 mmHg 78%
    08:00 +16°C° 0.3 mm 1 mps 762 mmHg 76%
    09:00 +19°C° 0.1 mm 1 mps 762 mmHg 67%
    10:00 +21°C° 0.1 mm 1 mps 762 mmHg 58%
    11:00 +23°C° 0.1 mm 1 mps 762 mmHg 49%
    12:00 +23°C° 0.1 mm 1 mps 762 mmHg 50%
    13:00 +21°C° 0.1 mm 2 mps 762 mmHg 52%
    14:00 +21°C° 0.1 mm 2 mps 761 mmHg 54%
    15:00 +21°C° 0.1 mm 2 mps 761 mmHg 54%
    16:00 +21°C° 0.1 mm 2 mps 761 mmHg 55%
    17:00 +20°C° 0.1 mm 2 mps 761 mmHg 55%
    18:00 +19°C° 0 mm 2 mps 761 mmHg 58%
    19:00 +18°C° 0 mm 2 mps 761 mmHg 61%
    20:00 +17°C° 0 mm 3 mps 762 mmHg 64%
    21:00 +17°C° 0 mm 3 mps 762 mmHg 65%
    22:00 +17°C° 0 mm 2 mps 762 mmHg 66%
    23:00 +16°C° 0 mm 2 mps 763 mmHg 68%

    22 October, Tuesday

    Time Temperature Precipitation Wind Pressure Humidity
    00:00 +16°C° 0 mm 2 mps 762 mmHg 69%
    01:00 +16°C° 0 mm 1 mps 762 mmHg 71%
    02:00 +15°C° 0 mm 1 mps 762 mmHg 73%
    03:00 +15°C° 0 mm 1 mps 762 mmHg 74%
    04:00 +15°C° 0 mm 1 mps 763 mmHg 75%
    05:00 +14°C° 0 mm 1 mps 763 mmHg 76%
    06:00 +16°C° 0 mm 1 mps 763 mmHg 70%
    07:00 +18°C° 0 mm 1 mps 763 mmHg 64%
    08:00 +20°C° 0 mm 1 mps 763 mmHg 58%
    09:00 +22°C° 0 mm 1 mps 763 mmHg 52%
    10:00 +24°C° 0 mm 2 mps 764 mmHg 46%
    11:00 +26°C° 0 mm 2 mps 764 mmHg 40%
    12:00 +26°C° 0 mm 2 mps 763 mmHg 40%
    13:00 +25°C° 0 mm 2 mps 763 mmHg 40%
    14:00 +25°C° 0 mm 3 mps 763 mmHg 41%
    15:00 +24°C° 0.1 mm 3 mps 763 mmHg 45%
    16:00 +22°C° 0.1 mm 4 mps 763 mmHg 49%
    17:00 +21°C° 0.1 mm 4 mps 763 mmHg 53%
    18:00 +20°C° 0 mm 5 mps 763 mmHg 55%
    19:00 +19°C° 0 mm 5 mps 763 mmHg 57%
    20:00 +17°C° 0 mm 6 mps 764 mmHg 59%
    21:00 +16°C° 0 mm 6 mps 764 mmHg 60%
    22:00 +16°C° 0 mm 6 mps 764 mmHg 60%
    23:00 +15°C° 0 mm 5 mps 765 mmHg 61%
    Show more